KA8DUX-2 Weather Reports


Display with metric or nautical units.
time (UTC)temp
F
wind
direction
speed
MPH
gust
MPH
rain 1hr
in
rain 24hr
in
rain mn
in
humidity
%
barometer
mb
20260507230501 54 277 2.0 2.0 0.00 0.00 0.00 46 1009.2
20260507225956 54 117 0.0 0.0 0.00 0.00 0.00 48 1009.6
20260507225452 53 140 2.0 2.0 0.00 0.00 0.00 46 1009.9
20260507224949 53 175 1.0 1.0 0.00 0.00 0.00 47 1009.9
20260507224444 54 161 0.0 0.0 0.00 0.00 0.00 50 1009.9
20260507223941 54 212 2.0 2.0 0.00 0.00 0.00 44 1009.9
20260507223437 54 266 2.0 2.0 0.00 0.00 0.00 44 1009.7
20260507222935 54 219 1.0 1.0 0.00 0.00 0.00 44 1009.8
20260507222432 54 131 0.0 0.0 0.00 0.00 0.00 46 1009.9
20260507221928 54 130 1.0 2.0 0.00 0.00 0.00 44 1009.9
20260507221425 54 183 2.0 2.0 0.00 0.00 0.00 45 1009.9
20260507220921 54 127 0.0 0.0 0.00 0.00 0.00 46 1009.9
20260507220419 55 162 1.0 1.0 0.00 0.00 0.00 44 1009.9
20260507215915 55 288 2.0 2.0 0.00 0.00 0.00 43 1009.9
20260507215412 56 226 3.0 3.0 0.00 0.00 0.00 42 1009.8
20260507214909 56 266 1.0 2.0 0.00 0.00 0.00 41 1010.0
20260507214407 56 231 3.0 3.0 0.00 0.00 0.00 41 1010.0
20260507213902 55 148 1.0 1.0 0.00 0.00 0.00 44 1010.0
20260507213359 56 322 1.0 1.0 0.00 0.00 0.00 43 1009.8
20260507212856 56 129 0.0 1.0 0.00 0.00 0.00 41 1010.0
20260507212352 57 134 1.0 1.0 0.00 0.00 0.00 41 1009.9
20260507211848 56 133 0.0 0.0 0.00 0.00 0.00 42 1010.0
20260507211345 57 231 2.0 2.0 0.00 0.00 0.00 42 1010.0
20260507210842 57 238 1.0 1.0 0.00 0.00 0.00 40 1010.0
20260507210339 59 310 3.0 3.0 0.00 0.00 0.00 41 1010.2
20260507205835 57 180 1.0 2.0 0.00 0.00 0.00 41 1010.3
20260507205332 56 139 1.0 1.0 0.00 0.00 0.00 42 1010.5
20260507204829 56 112 1.0 2.0 0.00 0.00 0.00 42 1010.6
20260507204326 57 115 3.0 3.0 0.00 0.00 0.00 40 1010.6
20260507203824 57 199 3.0 5.0 0.00 0.00 0.00 40 1010.8
20260507203321 57 130 1.0 1.0 0.00 0.00 0.00 41 1010.6
20260507202817 56 169 0.0 1.0 0.00 0.00 0.00 42 1010.7
20260507202314 54 137 1.0 2.0 0.00 0.00 0.00 42 1011.0
20260507201809 57 189 2.0 3.0 0.00 0.00 0.00 42 1010.8
20260507201305 55 205 2.0 2.0 0.00 0.00 0.00 42 1011.0
20260507200802 56 172 2.0 3.0 0.00 0.00 0.00 38 1011.0
20260507200257 57 239 3.0 5.0 0.00 0.00 0.00 39 1011.0
20260507195754 56 205 2.0 3.0 0.00 0.00 0.00 41 1011.2
20260507195251 56 215 2.0 3.0 0.00 0.00 0.00 41 1011.1
20260507194749 56 112 1.0 2.0 0.00 0.00 0.00 42 1011.1
20260507194244 57 213 5.0 7.0 0.00 0.00 0.00 39 1011.2
20260507193741 57 168 6.0 7.0 0.00 0.00 0.00 39 1011.2
20260507193238 57 276 5.0 7.0 0.00 0.00 0.00 39 1011.2
20260507192734 57 229 3.0 3.0 0.00 0.00 0.00 42 1011.2
20260507192231 56 168 3.0 5.0 0.00 0.00 0.00 41 1011.4
20260507191727 57 216 3.0 6.0 0.00 0.00 0.00 39 1011.4
20260507191224 56 197 2.0 2.0 0.00 0.00 0.00 40 1011.2
20260507190721 54 246 3.0 5.0 0.00 0.00 0.00 43 1011.6
20260507190220 56 190 1.0 2.0 0.00 0.00 0.00 41 1011.7
20260507185718 57 77 0.0 1.0 0.00 0.00 0.00 40 1011.6
20260507185214 56 204 2.0 2.0 0.00 0.00 0.00 41 1011.8
20260507184712 57 225 2.0 3.0 0.00 0.00 0.00 40 1011.6
20260507184210 56 247 2.0 5.0 0.00 0.00 0.00 41 1011.5
20260507183706 57 120 1.0 1.0 0.00 0.00 0.00 41 1011.6
20260507183203 54 275 3.0 3.0 0.00 0.00 0.00 41 1011.5
20260507182700 56 79 1.0 1.0 0.00 0.00 0.00 40 1011.7
20260507182155 56 61 1.0 2.0 0.00 0.00 0.00 41 1011.6
20260507181652 53 127 5.0 6.0 0.00 0.00 0.00 42 1011.5
20260507181148 54 317 3.0 5.0 0.00 0.00 0.00 41 1011.6
20260507180645 55 0 4.0 6.0 0.00 0.00 0.00 39 1011.6
20260507180142 56 316 4.0 5.0 0.00 0.00 0.00 39 1011.6
20260507175638 56 84 1.0 2.0 0.00 0.00 0.00 40 1011.5
20260507175135 55 38 2.0 2.0 0.00 0.00 0.00 42 1011.7
20260507174632 56 280 0.0 1.0 0.00 0.00 0.00 40 1011.9
20260507174130 54 137 3.0 5.0 0.00 0.00 0.00 40 1011.9
20260507173627 55 199 6.0 8.0 0.00 0.00 0.00 41 1012.0
20260507173124 54 270 2.0 2.0 0.00 0.00 0.00 42 1011.9
20260507172620 54 109 2.0 2.0 0.00 0.00 0.00 42 1012.4
20260507172118 54 76 3.0 3.0 0.00 0.00 0.00 43 1012.2
20260507171612 54 184 1.0 1.0 0.00 0.00 0.00 43 1012.3
20260507171110 52 217 2.0 2.0 0.00 0.00 0.00 43 1012.2
20260507170607 51 200 1.0 2.0 0.00 0.00 0.00 45 1012.5
20260507170104 53 234 2.0 2.0 0.00 0.00 0.00 43 1012.6
20260507165559 54 189 2.0 3.0 0.00 0.00 0.00 42 1012.5
20260507165056 53 232 3.0 3.0 0.00 0.00 0.00 43 1012.9
20260507164552 52 182 2.0 3.0 0.00 0.00 0.00 43 1012.8
20260507164049 52 195 2.0 3.0 0.00 0.00 0.00 45 1012.9
20260507163547 53 171 3.0 5.0 0.00 0.00 0.00 43 1012.9
20260507163044 53 187 3.0 5.0 0.00 0.00 0.00 44 1012.9
20260507162539 53 276 4.0 6.0 0.00 0.00 0.00 43 1012.9
20260507162036 53 284 2.0 3.0 0.00 0.00 0.00 46 1012.9
20260507161532 53 273 3.0 5.0 0.00 0.00 0.00 45 1012.8
20260507161029 52 99 2.0 3.0 0.00 0.00 0.00 46 1013.1
20260507160525 52 293 3.0 3.0 0.00 0.00 0.00 45 1012.7
20260507160022 54 304 5.0 6.0 0.00 0.00 0.00 46 1013.2
20260507155517 51 114 2.0 3.0 0.00 0.00 0.00 48 1013.0
20260507155014 53 155 5.0 7.0 0.00 0.00 0.00 46 1013.0
20260507154511 52 119 2.0 2.0 0.00 0.00 0.00 49 1012.9
20260507154009 52 167 3.0 6.0 0.00 0.00 0.00 48 1013.2
20260507153505 53 272 4.0 5.0 0.00 0.00 0.00 47 1013.0
20260507153001 52 228 4.0 5.0 0.00 0.00 0.00 46 1013.0
20260507152457 53 278 3.0 3.0 0.00 0.00 0.00 45 1013.0
20260507151954 52 118 1.0 1.0 0.00 0.00 0.00 50 1012.9
20260507151450 51 298 2.0 3.0 0.00 0.00 0.00 48 1013.0
20260507150946 53 211 3.0 5.0 0.00 0.00 0.00 44 1012.9
20260507150444 52 319 2.0 3.0 0.00 0.00 0.00 46 1012.6
20260507145940 51 189 4.0 5.0 0.00 0.00 0.00 46 1012.9
20260507145435 52 81 3.0 5.0 0.00 0.00 0.00 46 1012.9
20260507144933 52 256 3.0 3.0 0.00 0.00 0.00 46 1012.7
20260507144430 53 132 2.0 3.0 0.00 0.00 0.00 45 1012.9
20260507143927 51 138 0.0 1.0 0.00 0.00 0.00 47 1012.8
20260507143424 51 128 3.0 5.0 0.00 0.00 0.00 46 1012.9
20260507142920 51 159 1.0 1.0 0.00 0.00 0.00 49 1012.9
20260507142416 51 241 2.0 2.0 0.00 0.00 0.00 49 1013.0
20260507141914 50 140 2.0 2.0 0.00 0.00 0.00 49 1013.2
20260507141410 50 300 3.0 5.0 0.00 0.00 0.00 50 1013.0
20260507140907 50 13 4.0 6.0 0.00 0.00 0.00 50 1013.1
20260507140403 49 139 1.0 1.0 0.00 0.00 0.00 53 1013.3
20260507135901 49 252 3.0 5.0 0.00 0.00 0.00 51 1013.3
20260507135358 49 108 0.0 0.0 0.00 0.00 0.00 52 1012.9
20260507134855 49 271 2.0 3.0 0.00 0.00 0.00 52 1013.1
20260507134351 49 191 3.0 3.0 0.00 0.00 0.00 53 1012.8
20260507133847 49 148 1.0 1.0 0.00 0.00 0.00 54 1013.0
20260507133343 48 271 3.0 5.0 0.00 0.00 0.00 56 1013.1
20260507132842 47 229 1.0 2.0 0.00 0.00 0.00 60 1012.8
20260507132338 46 137 1.0 1.0 0.00 0.00 0.00 60 1013.0
20260507131835 47 273 3.0 3.0 0.00 0.00 0.00 59 1012.8
20260507131331 46 290 1.0 1.0 0.00 0.00 0.00 61 1012.9
20260507130828 46 119 0.0 1.0 0.00 0.00 0.00 63 1012.9
20260507130325 45 179 1.0 1.0 0.00 0.00 0.00 64 1012.7
20260507125825 45 286 2.0 3.0 0.00 0.00 0.00 64 1013.0
20260507125321 44 157 1.0 1.0 0.00 0.00 0.00 67 1012.7
20260507124819 44 245 3.0 5.0 0.00 0.00 0.00 67 1012.7
20260507124315 43 195 1.0 2.0 0.00 0.00 0.00 67 1012.8
20260507123814 43 164 1.0 1.0 0.00 0.00 0.00 69 1012.7
20260507123310 43 293 2.0 2.0 0.00 0.00 0.00 71 1012.9
20260507122807 43 221 3.0 3.0 0.00 0.00 0.00 72 1012.5
20260507122306 42 135 0.0 1.0 0.00 0.00 0.00 74 1012.5
20260507121758 42 193 1.0 1.0 0.00 0.00 0.00 74 1012.5
20260507121254 41 245 2.0 3.0 0.00 0.00 0.00 76 1012.5
20260507120750 41 267 3.0 3.0 0.00 0.00 0.00 77 1012.6
20260507120247 41 139 0.0 1.0 0.00 0.00 0.00 78 1012.5
20260507115743 40 182 0.0 1.0 0.00 0.00 0.00 78 1012.5
20260507115239 40 138 0.0 0.0 0.00 0.00 0.00 79 1012.6
20260507114735 40 180 2.0 3.0 0.00 0.00 0.00 80 1012.5
20260507114233 39 148 0.0 0.0 0.00 0.00 0.00 81 1012.5
20260507113730 39 146 0.0 0.0 0.00 0.00 0.00 82 1012.4
20260507113227 39 144 0.0 0.0 0.00 0.00 0.00 82 1012.4
20260507112724 38 127 0.0 0.0 0.00 0.00 0.00 84 1012.4
20260507112221 37 206 1.0 2.0 0.00 0.00 0.00 85 1012.1
20260507111718 36 149 0.0 0.0 0.00 0.00 0.00 87 1012.3
20260507111215 36 136 0.0 0.0 0.00 0.00 0.00 87 1012.2
20260507110711 36 128 0.0 0.0 0.00 0.00 0.00 87 1012.3
20260507110208 36 138 0.0 0.0 0.00 0.00 0.00 86 1012.1
20260507105705 36 136 0.0 0.0 0.00 0.00 0.00 87 1012.0
20260507105201 35 140 0.0 0.0 0.00 0.00 0.00 86 1011.8
20260507104659 36 136 0.0 0.0 0.00 0.00 0.00 86 1011.8
20260507104154 36 130 0.0 0.0 0.00 0.00 0.00 86 1012.0
20260507103650 35 134 0.0 0.0 0.00 0.00 0.00 86 1012.0
20260507103147 35 130 0.0 0.0 0.00 0.00 0.00 85 1012.0
20260507102644 35 137 0.0 0.0 0.00 0.00 0.00 85 1011.7
20260507102140 36 129 0.0 0.0 0.00 0.00 0.00 84 1012.0
20260507101636 36 131 0.0 0.0 0.00 0.00 0.00 84 1011.7
20260507101132 36 131 0.0 0.0 0.00 0.00 0.00 83 1011.8
20260507100630 36 130 0.0 0.0 0.00 0.00 0.00 82 1011.6
20260507100128 36 133 0.0 0.0 0.00 0.00 0.00 82 1011.8
20260507095626 37 132 0.0 0.0 0.00 0.00 0.00 80 1011.6
20260507095122 37 129 0.0 0.0 0.00 0.00 0.00 80 1011.8
20260507094618 37 136 0.0 0.0 0.00 0.00 0.00 80 1011.9
20260507094115 37 133 0.0 0.0 0.00 0.00 0.00 80 1012.0
20260507093612 38 139 0.0 0.0 0.00 0.00 0.00 79 1011.8
20260507093111 38 136 0.0 0.0 0.00 0.00 0.00 78 1011.9
20260507092607 38 131 0.0 0.0 0.00 0.00 0.00 77 1011.8
20260507092104 39 131 0.0 0.0 0.00 0.00 0.00 77 1011.7
20260507091601 39 124 0.0 0.0 0.00 0.00 0.00 76 1011.9
20260507091056 39 130 0.0 0.0 0.00 0.00 0.00 77 1011.8
20260507090552 39 130 0.0 0.0 0.00 0.00 0.00 76 1011.9
20260507090050 39 131 0.0 0.0 0.00 0.00 0.00 75 1012.2
20260507085547 39 130 0.0 0.0 0.00 0.00 0.00 75 1012.0
20260507085044 40 129 0.0 0.0 0.00 0.00 0.00 74 1012.1
20260507084540 40 134 0.0 0.0 0.00 0.00 0.00 73 1012.1
20260507084037 40 131 0.0 0.0 0.00 0.00 0.00 72 1011.8
20260507083533 40 133 0.0 0.0 0.00 0.00 0.00 71 1012.0
20260507083031 41 131 0.0 0.0 0.00 0.00 0.00 70 1012.2
20260507082526 41 137 0.0 0.0 0.00 0.00 0.00 70 1011.9
20260507082023 41 135 0.0 0.0 0.00 0.00 0.00 70 1012.1
20260507081519 41 131 0.0 0.0 0.00 0.00 0.00 70 1011.9
20260507081016 41 127 0.0 0.0 0.00 0.00 0.00 69 1011.8
20260507080512 41 127 0.0 0.0 0.00 0.00 0.00 69 1012.0
20260507080009 42 126 0.0 0.0 0.00 0.00 0.00 69 1011.9
20260507075504 42 128 0.0 0.0 0.00 0.00 0.00 69 1011.9
20260507075001 42 102 0.0 0.0 0.00 0.00 0.00 70 1012.1
20260507074458 41 121 0.0 0.0 0.00 0.00 0.00 69 1012.2
20260507073956 41 134 0.0 0.0 0.00 0.00 0.00 70 1012.2
20260507073452 41 129 0.0 0.0 0.00 0.00 0.00 70 1012.3
20260507072948 41 136 0.0 0.0 0.00 0.00 0.00 69 1012.1
20260507072446 42 127 0.0 0.0 0.00 0.00 0.00 68 1012.2
20260507071943 42 123 0.0 0.0 0.00 0.00 0.00 69 1012.1
20260507071440 42 130 0.0 0.0 0.00 0.00 0.00 69 1012.1
20260507070937 42 124 0.0 0.0 0.00 0.00 0.00 68 1012.0
20260507070434 42 150 0.0 0.0 0.00 0.00 0.00 68 1012.2
20260507065930 43 113 0.0 0.0 0.00 0.00 0.00 67 1012.0
20260507065427 43 87 1.0 1.0 0.00 0.00 0.00 67 1012.0
20260507064925 43 122 1.0 1.0 0.00 0.00 0.00 66 1012.4
20260507064423 44 101 2.0 2.0 0.00 0.00 0.00 66 1012.1
20260507063921 44 127 0.0 0.0 0.00 0.00 0.00 66 1012.1
20260507063417 44 146 2.0 2.0 0.00 0.00 0.00 64 1012.3
20260507062914 44 80 0.0 1.0 0.00 0.00 0.00 65 1012.4
20260507062411 45 147 0.0 0.0 0.00 0.00 0.00 64 1012.2
20260507061903 45 129 1.0 2.0 0.00 0.00 0.00 64 1012.3
20260507061401 45 119 2.0 2.0 0.00 0.00 0.00 64 1012.2
20260507060859 45 287 5.0 6.0 0.00 0.00 0.00 65 1011.9
20260507060355 44 126 0.0 1.0 0.00 0.00 0.00 65 1012.0
20260507055852 44 139 0.0 1.0 0.00 0.00 0.00 67 1012.1
20260507055347 44 139 1.0 1.0 0.00 0.00 0.00 68 1012.2
20260507054845 44 132 0.0 0.0 0.00 0.00 0.00 69 1012.2
20260507054340 43 101 0.0 0.0 0.00 0.00 0.00 71 1012.2
20260507053838 43 131 0.0 0.0 0.00 0.00 0.00 70 1012.2
20260507053336 43 131 0.0 0.0 0.00 0.00 0.00 69 1012.1
20260507052834 43 131 0.0 0.0 0.00 0.00 0.00 70 1012.3
20260507052331 43 130 0.0 0.0 0.00 0.00 0.00 70 1012.2
20260507051828 43 130 0.0 0.0 0.00 0.00 0.00 69 1012.3
20260507051326 43 130 0.0 0.0 0.00 0.00 0.00 68 1012.3
20260507050822 43 130 0.0 0.0 0.00 0.00 0.00 68 1012.2
20260507050319 43 130 0.0 0.0 0.00 0.00 0.00 68 1012.3
20260507045816 43 130 0.0 0.0 0.00 0.00 0.00 67 1012.2
20260507045312 43 135 0.0 0.0 0.00 0.00 0.00 67 1012.2
20260507044809 43 124 0.0 0.0 0.00 0.00 0.00 67 1012.2
20260507044306 43 128 0.0 0.0 0.00 0.00 0.00 66 1012.3
20260507043802 43 128 0.0 0.0 0.00 0.00 0.00 65 1012.3
20260507043259 44 128 0.0 0.0 0.00 0.00 0.00 64 1012.2
20260507042755 44 128 0.0 0.0 0.00 0.00 0.00 64 1012.3
20260507042250 44 128 0.0 0.0 0.00 0.00 0.00 63 1012.2
20260507041748 44 130 0.0 0.0 0.00 0.00 0.00 63 1012.5
20260507041244 44 126 0.0 0.0 0.00 0.00 0.00 63 1012.4
20260507040741 44 124 0.0 0.0 0.00 0.00 0.00 62 1012.3
20260507040237 44 133 0.0 0.0 0.00 0.00 0.00 62 1012.1
20260507035734 44 130 0.0 0.0 0.00 0.00 0.00 61 1012.4
20260507035229 45 128 0.0 0.0 0.00 0.00 0.00 61 1012.3
20260507034727 45 131 0.0 0.0 0.00 0.00 0.00 59 1012.4
20260507034223 45 134 0.0 0.0 0.00 0.00 0.00 57 1012.3
20260507033722 46 132 0.0 0.0 0.00 0.00 0.00 57 1012.4
20260507033219 46 132 0.0 0.0 0.00 0.00 0.00 56 1012.3
20260507032717 46 126 0.0 0.0 0.00 0.00 0.00 56 1012.3
20260507032212 46 131 0.0 0.0 0.00 0.00 0.00 56 1012.5
20260507031709 47 123 0.0 0.0 0.00 0.00 0.00 55 1012.4
20260507031206 47 130 0.0 0.0 0.00 0.00 0.00 54 1012.5
20260507030703 47 143 0.0 0.0 0.00 0.00 0.00 54 1012.6
20260507030200 47 137 0.0 0.0 0.00 0.00 0.00 53 1012.6
20260507025657 48 131 0.0 0.0 0.00 0.00 0.00 53 1012.4
20260507025154 48 141 0.0 0.0 0.00 0.00 0.00 51 1012.4
20260507024652 48 133 0.0 0.0 0.00 0.00 0.00 51 1012.5
20260507024149 48 135 0.0 0.0 0.00 0.00 0.00 52 1012.3
20260507023644 48 134 0.0 0.0 0.00 0.00 0.00 51 1012.4
20260507023142 48 130 0.0 0.0 0.00 0.00 0.00 51 1012.2
20260507022639 48 133 0.0 0.0 0.00 0.00 0.00 51 1012.3
20260507022135 48 123 0.0 0.0 0.00 0.00 0.00 50 1012.4
20260507021631 48 161 1.0 1.0 0.00 0.00 0.00 50 1012.2
20260507021126 48 141 0.0 1.0 0.00 0.00 0.00 49 1012.4
20260507020625 49 144 0.0 0.0 0.00 0.00 0.00 51 1012.1
20260507020121 49 132 0.0 0.0 0.00 0.00 0.00 50 1012.2
20260507015620 49 144 0.0 0.0 0.00 0.00 0.00 48 1012.1
20260507015117 49 140 0.0 0.0 0.00 0.00 0.00 49 1011.9
20260507014613 49 147 0.0 0.0 0.00 0.00 0.00 48 1012.0
20260507014109 49 125 0.0 0.0 0.00 0.00 0.00 47 1012.1
20260507013606 49 206 1.0 1.0 0.00 0.00 0.00 47 1011.9
20260507013103 49 137 0.0 0.0 0.00 0.00 0.00 47 1012.0
20260507012600 50 105 0.0 1.0 0.00 0.00 0.00 47 1011.9
20260507012056 50 137 0.0 0.0 0.00 0.00 0.00 47 1012.2
20260507011554 50 140 1.0 1.0 0.00 0.00 0.00 46 1011.9
20260507011050 50 175 1.0 1.0 0.00 0.00 0.00 46 1011.9
20260507010544 50 130 0.0 0.0 0.00 0.00 0.00 47 1012.1
20260507010041 50 194 0.0 1.0 0.00 0.00 0.00 47 1011.9
20260507005539 50 249 1.0 1.0 0.00 0.00 0.00 46 1011.9
20260507005034 50 158 0.0 1.0 0.00 0.00 0.00 47 1011.8
20260507004532 50 266 0.0 0.0 0.00 0.00 0.00 46 1011.9
20260507004029 50 142 1.0 1.0 0.00 0.00 0.00 45 1011.9
20260507003525 50 210 1.0 2.0 0.00 0.00 0.00 45 1011.8
20260507003020 50 160 0.0 0.0 0.00 0.00 0.00 45 1011.9
20260507002516 51 139 0.0 0.0 0.00 0.00 0.00 44 1011.6
20260507002013 51 137 0.0 0.0 0.00 0.00 0.00 47 1011.6
20260507001509 51 178 1.0 2.0 0.00 0.00 0.00 44 1011.6
20260507001007 51 156 1.0 1.0 0.00 0.00 0.00 45 1011.5
20260507000502 51 161 1.0 1.0 0.00 0.00 0.00 44 1011.4
20260506235958 51 147 2.0 2.0 0.00 0.00 0.00 44 1011.4
20260506235456 51 155 1.0 2.0 0.00 0.00 0.00 43 1011.6
20260506234952 51 200 3.0 3.0 0.00 0.00 0.00 43 1011.5
20260506234449 52 130 0.0 1.0 0.00 0.00 0.00 44 1011.5
20260506233947 52 250 2.0 2.0 0.00 0.00 0.00 42 1011.5
20260506233443 52 229 3.0 5.0 0.00 0.00 0.00 42 1011.8
20260506232940 52 249 3.0 3.0 0.00 0.00 0.00 42 1011.7
20260506232436 52 181 2.0 2.0 0.00 0.00 0.00 42 1011.1
20260506231932 52 242 1.0 1.0 0.00 0.00 0.00 42 1011.4
20260506231429 53 158 2.0 3.0 0.00 0.00 0.00 42 1011.1
20260506230926 53 177 0.0 1.0 0.00 0.00 0.00 44 1011.2